VK6WB Weather Reports


Display with metric or nautical units.
time (UTC)temp
F
wind
direction
speed
MPH
gust
MPH
rain 1hr
in
rain 24hr
in
rain mn
in
humidity
%
barometer
mb
20260506023004 67 231 6.0 12.0 0.00 0.00 0.00 23 1025.3
20260506022004 67 270 7.0 11.0 0.00 0.00 0.00 21 1025.3
20260506021004 66 275 5.0 11.0 0.00 0.00 0.00 22 1025.4
20260506020004 65 284 8.0 13.0 0.00 0.00 0.00 22 1025.4
20260506015004 65 270 5.0 11.0 0.00 0.00 0.00 21 1025.5
20260506014004 64 270 7.0 15.0 0.00 0.00 0.00 22 1025.5
20260506013004 63 282 8.0 14.0 0.00 0.00 0.00 23 1025.5
20260506012004 62 289 8.0 14.0 0.00 0.00 0.00 23 1025.5
20260506011004 78 271 4.0 16.0 0.00 0.00 0.00 24 1025.5
20260506010004 61 285 8.0 17.0 0.00 0.00 0.00 23 1025.4
20260506005004 60 273 9.0 15.0 0.00 0.00 0.00 24 1025.4
20260506004004 60 268 9.0 15.0 0.00 0.00 0.00 23 1025.2
20260506003004 59 269 7.0 11.0 0.00 0.00 0.00 25 1025.2
20260506002004 59 288 3.0 11.0 0.00 0.00 0.00 25 1025.1
20260506001004 58 293 8.0 11.0 0.00 0.00 0.00 26 1025.0
20260506000004 57 299 6.0 11.0 0.00 0.00 0.00 28 1024.9
20260505235004 56 300 8.0 13.0 0.00 0.00 0.00 29 1024.8
20260505234004 56 304 6.0 11.0 0.00 0.00 0.00 31 1024.6
20260505233004 55 290 6.0 14.0 0.00 0.00 0.00 34 1024.5
20260505232004 54 293 6.0 10.0 0.00 0.00 0.00 39 1024.4
20260505231004 54 291 4.0 11.0 0.00 0.00 0.00 41 1024.1
20260505230004 53 284 4.0 8.0 0.00 0.00 0.00 44 1024.0
20260505225004 53 269 3.0 8.0 0.00 0.00 0.00 45 1023.9
20260505224003 54 291 3.0 8.0 0.00 0.00 0.00 46 1023.9
20260505223004 54 272 4.0 8.0 0.00 0.00 0.00 46 1023.8
20260505222003 54 277 4.0 9.0 0.00 0.00 0.00 46 1023.9
20260505221004 55 271 6.0 9.0 0.00 0.00 0.00 46 1023.6
20260505220003 55 286 4.0 14.0 0.00 0.00 0.00 47 1023.6
20260505215004 55 286 3.0 11.0 0.00 0.00 0.00 47 1023.5
20260505214004 55 275 5.0 11.0 0.00 0.00 0.00 48 1023.4
20260505213003 55 280 7.0 12.0 0.00 0.00 0.00 49 1023.4
20260505212004 55 281 7.0 12.0 0.00 0.00 0.00 50 1023.4
20260505211003 56 303 7.0 16.0 0.00 0.00 0.00 50 1023.3
20260505210003 56 306 5.0 17.0 0.00 0.00 0.00 50 1023.1
20260505205003 56 303 7.0 15.0 0.00 0.00 0.00 50 1023.1
20260505204003 56 279 5.0 14.0 0.00 0.00 0.00 50 1023.1
20260505203004 56 300 8.0 13.0 0.00 0.00 0.00 51 1023.0
20260505202004 56 288 7.0 15.0 0.00 0.00 0.00 51 1023.0
20260505201003 56 298 5.0 12.0 0.00 0.00 0.00 52 1022.9
20260505200003 56 294 7.0 11.0 0.00 0.00 0.00 52 1022.9
20260505195004 56 283 4.0 12.0 0.00 0.00 0.00 52 1022.9
20260505194005 57 283 4.0 13.0 0.00 0.00 0.00 52 1022.9
20260505193005 57 306 4.0 11.0 0.00 0.00 0.00 52 1022.8
20260505192005 57 290 5.0 10.0 0.00 0.00 0.00 52 1022.9
20260505191006 57 290 5.0 11.0 0.00 0.00 0.00 52 1022.7
20260505190005 58 289 3.0 11.0 0.00 0.00 0.00 51 1022.6
20260505185005 58 299 6.0 11.0 0.00 0.00 0.00 51 1022.6
20260505184006 58 289 6.0 9.0 0.00 0.00 0.00 51 1022.7
20260505183005 58 294 4.0 10.0 0.00 0.00 0.00 51 1022.8
20260505182005 58 301 6.0 12.0 0.00 0.00 0.00 50 1022.9
20260505181006 58 303 5.0 12.0 0.00 0.00 0.00 50 1022.8
20260505180005 59 304 4.0 16.0 0.00 0.00 0.00 48 1022.9
20260505175005 59 294 6.0 17.0 0.00 0.00 0.00 47 1022.8
20260505174006 59 285 4.0 14.0 0.00 0.00 0.00 47 1022.8
20260505173005 59 295 7.0 14.0 0.00 0.00 0.00 47 1022.8
20260505172005 59 301 6.0 14.0 0.00 0.00 0.00 46 1022.8
20260505171006 59 291 7.0 13.0 0.00 0.00 0.00 46 1022.6
20260505170005 58 304 4.0 11.0 0.00 0.00 0.00 48 1022.6
20260505165005 58 303 3.0 8.0 0.00 0.00 0.00 50 1022.5
20260505164005 57 307 3.0 5.0 0.00 0.00 0.00 52 1022.4
20260505163006 58 297 2.0 4.0 0.00 0.00 0.00 52 1022.4
20260505162005 58 304 2.0 5.0 0.00 0.00 0.00 50 1022.4
20260505161005 59 299 2.0 7.0 0.00 0.00 0.00 49 1022.3
20260505153005 59 310 3.0 9.0 0.00 0.00 0.00 45 1022.4
20260505152005 58 326 4.0 6.0 0.00 0.00 0.00 48 1022.4
20260505151005 58 334 2.0 5.0 0.00 0.00 0.00 51 1022.2
20260505125004 61 351 2.0 4.0 0.00 0.00 0.00 59 1022.2
20260505124005 61 11 1.0 4.0 0.00 0.00 0.00 59 1022.2
20260505123005 61 346 2.0 4.0 0.00 0.00 0.00 59 1022.3
20260505122005 61 349 1.0 5.0 0.00 0.00 0.00 59 1022.1
20260505121004 62 353 2.0 5.0 0.00 0.00 0.00 59 1022.2
20260505120005 62 2 2.0 4.0 0.00 0.00 0.00 59 1022.1
20260505115005 62 342 2.0 6.0 0.00 0.00 0.00 59 1022.2
20260505114004 62 347 2.0 4.0 0.00 0.00 0.00 59 1022.1
20260505113005 63 349 1.0 6.0 0.00 0.00 0.00 59 1022.0
20260505112004 63 352 3.0 5.0 0.00 0.00 0.00 60 1021.9
20260505111004 63 354 2.0 5.0 0.00 0.00 0.00 63 1021.9
20260505102004 65 357 3.0 5.0 0.00 0.00 0.00 63 1021.3
20260505101005 65 5 2.0 7.0 0.00 0.00 0.00 61 1021.3
20260505100005 66 24 2.0 8.0 0.00 0.00 0.00 61 1021.2
20260505095004 67 28 4.0 9.0 0.00 0.00 0.00 59 1021.1
20260505094005 67 27 4.0 8.0 0.00 0.00 0.00 57 1021.0
20260505093005 68 38 2.0 10.0 0.00 0.00 0.00 55 1021.1
20260505092004 68 7 5.0 12.0 0.00 0.00 0.00 54 1021.0
20260505091005 69 25 3.0 12.0 0.00 0.00 0.00 53 1020.9
20260505090004 71 35 7.0 11.0 0.00 0.00 0.00 50 1020.9
20260505085005 72 20 2.0 9.0 0.00 0.00 0.00 49 1020.7
20260505084004 72 28 5.0 12.0 0.00 0.00 0.00 50 1020.6
20260505083005 73 41 4.0 13.0 0.00 0.00 0.00 50 1020.7
20260505082004 73 343 7.0 12.0 0.00 0.00 0.00 49 1020.6
20260505081005 72 12 8.0 12.0 0.00 0.00 0.00 45 1020.7
20260505080004 76 5 5.0 15.0 0.00 0.00 0.00 41 1020.7
20260505075004 76 5 2.0 10.0 0.00 0.00 0.00 36 1020.5
20260505074005 76 343 2.0 8.0 0.00 0.00 0.00 35 1020.4
20260505073004 77 329 3.0 9.0 0.00 0.00 0.00 35 1020.4
20260505072004 77 24 2.0 9.0 0.00 0.00 0.00 35 1020.5
20260505071005 77 1 4.0 9.0 0.00 0.00 0.00 34 1020.4
20260505070004 78 3 4.0 7.0 0.00 0.00 0.00 31 1020.5
20260505065004 77 354 3.0 8.0 0.00 0.00 0.00 31 1020.4
20260505064004 77 356 4.0 8.0 0.00 0.00 0.00 32 1020.4
20260505063004 77 351 5.0 8.0 0.00 0.00 0.00 32 1020.5
20260505062005 77 341 2.0 8.0 0.00 0.00 0.00 30 1020.4
20260505061004 76 296 4.0 8.0 0.00 0.00 0.00 33 1020.5
20260505060005 77 338 3.0 9.0 0.00 0.00 0.00 32 1020.5
20260505055004 77 94 2.0 7.0 0.00 0.00 0.00 30 1020.6
20260505054004 75 279 2.0 7.0 0.00 0.00 0.00 31 1020.7
20260505053005 76 326 1.0 7.0 0.00 0.00 0.00 31 1020.7
20260505052004 76 280 3.0 6.0 0.00 0.00 0.00 30 1020.6
20260505051005 75 288 4.0 8.0 0.00 0.00 0.00 29 1020.9
20260505041004 71 283 2.0 7.0 0.00 0.00 0.00 30 1021.8
20260505040005 71 268 2.0 8.0 0.00 0.00 0.00 30 1021.8
20260505035004 72 269 2.0 5.0 0.00 0.00 0.00 25 1022.0
20260505034005 72 258 3.0 10.0 0.00 0.00 0.00 23 1022.1
20260505033004 71 265 6.0 10.0 0.00 0.00 0.00 21 1022.1
20260505032004 71 240 2.0 8.0 0.00 0.00 0.00 18 1022.4
20260505031004 71 229 4.0 9.0 0.00 0.00 0.00 16 1022.4
20260505030004 71 245 4.0 8.0 0.00 0.00 0.00 13 1022.4
20260505025004 70 307 4.0 8.0 0.00 0.00 0.00 11 1022.6
20260505024004 70 237 2.0 9.0 0.00 0.00 0.00 10 1022.5